Stations météo

Publicité
Dieppe, France (7040): Température de l'air & dewpoint: 16.11.2018 11:00:00 - 22.11.2018 11:00:00 (CET)Dieppe, France (7040): Température de l'air 5cm: 16.11.2018 11:00:00 - 22.11.2018 11:00:00 (CET)Dieppe, France (7040): Vitesse du vent & gusts: 16.11.2018 11:00:00 - 22.11.2018 11:00:00 (CET)Dieppe, France (7040): Direction du vent: 16.11.2018 11:00:00 - 22.11.2018 11:00:00 (CET)Dieppe, France (7040): reduced air pressure: 16.11.2018 11:00:00 - 22.11.2018 11:00:00 (CET)Dieppe, France (7040): visibility: 16.11.2018 11:00:00 - 22.11.2018 11:00:00 (CET)Dieppe, France (7040): Quantités de précipitations: 16.11.2018 11:00:00 - 22.11.2018 11:00:00 (CET)
Date & Time tt [°C] td [°C] tt 5cm [°C] ff [km/h] ff [knt] fx [km/h] fx [knt] dd ppp [hPa] vv [km] rr [mm]
22.11.2018 11:00:00 3,1 1,1 4,3 11 6 22 12 SSE 1017,3 - 0,2
22.11.2018 10:00:00 1,5 0,5 0,3 4 2 13 7 S 1017,3 4,5 0,0
22.11.2018 09:00:00 0,2 -0,5 -0,8 3 1 11 6 NE 1017,4 - 0,0
22.11.2018 08:00:00 0,7 -0,5 -0,2 7 4 14 7 S 1017,0 - 0,0
22.11.2018 07:00:00 2,0 1,0 -0,1 12 7 21 12 SSE 1017,1 - 0,0
22.11.2018 06:00:00 0,6 -0,6 0,2 11 6 18 10 SSE 1017,1 - 0,0
22.11.2018 05:00:00 0,7 -0,3 0,2 11 6 15 8 SSE 1017,1 - 0,0
22.11.2018 04:00:00 0,3 -0,7 -0,1 10 6 19 10 SSE 1017,4 - 0,0
22.11.2018 03:00:00 0,2 -0,8 -1,0 11 6 20 11 SSE 1017,5 - 0,0
22.11.2018 02:00:00 -0,8 -1,5 -2,4 10 5 16 9 SE 1017,6 - 0,0
22.11.2018 01:00:00 -2,0 -2,8 -2,4 11 6 16 9 SSE 1017,7 - 0,0
22.11.2018 00:00:00 -1,5 -2,6 -2,1 7 4 12 6 SSE 1018,0 - 0,0
21.11.2018 23:00:00 -1,2 -2,2 -2,5 9 5 11 6 SSE 1018,0 - 0,0
21.11.2018 22:00:00 -0,4 -1,7 -2,4 7 4 9 5 SSE 1017,8 - 0,0
21.11.2018 21:00:00 0,3 -1,1 -0,8 8 4 11 6 SSE 1017,8 - 0,0
21.11.2018 20:00:00 1,3 -0,9 -0,2 5 3 15 8 SE 1017,5 - 0,0
21.11.2018 19:00:00 2,5 -0,1 1,7 9 5 18 10 SE 1017,0 9 0,0
21.11.2018 18:00:00 3,0 -0,5 1,1 8 4 13 7 ESE 1016,5 - 0,0
21.11.2018 17:00:00 4,0 0,1 3,0 8 4 18 10 SE 1016,0 - 0,0
21.11.2018 16:00:00 5,5 0,3 5,5 6 4 17 9 ESE 1015,2 - 0,0
21.11.2018 15:00:00 5,8 0,7 5,3 9 5 19 11 SE 1014,7 - 0,0
21.11.2018 14:00:00 5,8 0,7 6,1 9 5 23 12 SSE 1014,5 - 0,0
21.11.2018 13:00:00 4,9 0,5 5,3 9 5 21 11 SE 1014,5 9 0,0
21.11.2018 12:00:00 3,5 0,2 2,5 10 6 25 13 S 1014,0 - 0,0
21.11.2018 11:00:00 2,0 -0,3 2,2 11 6 28 15 SSE 1013,7 - 0,0
21.11.2018 10:00:00 1,7 -0,2 0,9 13 7 29 15 SSE 1012,5 8 0,0
21.11.2018 09:00:00 1,0 -0,6 0,6 16 9 31 17 SSE 1011,4 - 0,0
21.11.2018 08:00:00 1,2 -0,6 0,8 16 9 35 19 SSE 1010,5 - 0,0
21.11.2018 07:00:00 1,8 -0,3 1,5 19 10 36 19 SSE 1009,8 - 0,0
21.11.2018 06:00:00 1,8 0,3 0,7 16 9 34 18 SSE 1009,0 - 0,0
21.11.2018 05:00:00 0,8 -0,2 0,1 17 9 31 17 SSE 1008,2 - 0,0
21.11.2018 04:00:00 0,7 -0,6 0,2 12 7 25 13 SSE 1007,5 - 0,0
21.11.2018 03:00:00 1,3 -0,2 0,6 12 7 29 16 SSE 1007,1 - 0,0
21.11.2018 02:00:00 1,1 -0,2 0,6 12 7 24 13 S 1006,7 - 0,0
21.11.2018 01:00:00 1,5 0,5 0,7 7 4 18 10 SSE 1006,0 - 0,0
21.11.2018 00:00:00 1,4 0,4 0,6 8 4 13 7 SSE 1005,5 - 0,0
20.11.2018 23:00:00 1,8 0,3 1,2 4 2 13 7 SSE 1005,1 - 0,0
20.11.2018 22:00:00 2,3 0,8 1,9 6 3 18 10 ESE 1004,9 - 0,0
20.11.2018 21:00:00 2,4 0,8 1,5 6 3 12 6 SE 1004,9 - 0,0
20.11.2018 20:00:00 2,0 0,4 1,1 6 4 18 10 SE 1004,6 - 0,0
20.11.2018 19:00:00 2,0 0,1 0,8 10 5 19 11 E 1004,2 - 0,0
20.11.2018 18:00:00 2,1 0,5 1,2 10 6 18 10 E 1004,1 - 0,0
20.11.2018 17:00:00 1,8 0,5 1,3 9 5 20 11 E 1004,0 - 0,2
20.11.2018 16:00:00 2,2 0,4 1,8 8 4 25 13 E 1003,8 - 0,2
20.11.2018 15:00:00 2,3 0,5 2,2 13 7 32 17 E 1003,9 - 0,0
20.11.2018 14:00:00 2,7 -0,8 2,5 18 10 32 18 E 1003,9 - 0,0
20.11.2018 13:00:00 2,8 -1,0 2,6 15 8 29 16 E 1004,3 8 0,0
20.11.2018 12:00:00 2,9 -0,9 2,7 18 10 35 19 E 1004,7 - 0,0
20.11.2018 11:00:00 3,0 -0,5 2,7 20 11 33 18 ENE 1005,3 - 0,0
20.11.2018 10:00:00 2,9 0,0 2,5 19 10 34 18 ENE 1005,6 8 0,0
20.11.2018 09:00:00 2,8 0,2 2,5 18 10 44 24 ENE 1006,1 - 0,0
20.11.2018 08:00:00 3,0 0,2 2,7 23 12 46 25 ENE 1006,1 - 0,0
20.11.2018 07:00:00 3,2 0,4 2,8 26 14 44 24 ENE 1006,3 10 0,0
20.11.2018 06:00:00 3,5 -0,2 2,9 22 12 41 22 ENE 1006,6 - 0,0
20.11.2018 05:00:00 3,3 0,3 2,7 25 13 41 22 ENE 1007,2 - 0,0
20.11.2018 04:00:00 3,5 0,2 2,6 23 13 47 25 ENE 1007,8 - 0,0
20.11.2018 03:00:00 3,4 0,3 2,6 23 13 43 23 ENE 1008,3 - 0,0
20.11.2018 02:00:00 3,5 0,2 2,2 23 13 38 21 ENE 1008,9 - 0,0
20.11.2018 01:00:00 3,2 0,1 2,3 20 11 37 20 ENE 1009,7 - 0,0
20.11.2018 00:00:00 3,9 0,6 3,1 23 12 46 25 ENE 1010,2 - 0,0
19.11.2018 23:00:00 3,9 0,8 3,3 21 11 38 20 ENE 1010,9 - 0,0
19.11.2018 22:00:00 4,1 1,3 3,6 23 13 50 27 ENE 1011,6 - 0,0
19.11.2018 21:00:00 4,3 1,5 3,8 25 14 52 28 ENE 1011,9 - 0,0
19.11.2018 20:00:00 4,8 1,8 4,0 29 15 47 25 ENE 1012,2 - 0,0
19.11.2018 19:00:00 5,1 0,8 4,5 25 14 62 33 ENE 1012,6 10 0,0
19.11.2018 18:00:00 6,4 2,3 5,4 35 19 56 30 ENE 1013,1 - 0,0
19.11.2018 17:00:00 5,9 1,0 5,4 23 12 54 29 ENE 1014,0 - 0,0
19.11.2018 16:00:00 6,5 2,6 6,0 37 20 58 32 ENE 1014,4 8 0,0
19.11.2018 15:00:00 6,5 2,6 6,3 24 13 44 24 ENE 1015,4 - 0,0
19.11.2018 14:00:00 5,8 2,1 6,2 23 12 46 25 ENE 1016,1 - 0,0
19.11.2018 13:00:00 5,6 2,1 4,6 26 14 40 22 ENE 1016,8 10 0,0
19.11.2018 12:00:00 4,2 1,4 3,5 22 12 38 21 ENE 1018,1 - 0,0
19.11.2018 11:00:00 3,3 0,9 1,9 21 11 36 20 ENE 1019,0 - 0,0
19.11.2018 10:00:00 2,0 -0,3 0,4 21 11 35 19 E 1019,3 4,5 0,0
19.11.2018 09:00:00 0,8 -1,8 -0,7 16 9 25 13 E 1019,5 - 0,0
19.11.2018 08:00:00 0,3 -3,1 -0,9 16 9 31 17 ENE 1019,6 - 0,0
19.11.2018 07:00:00 0,2 -3,9 -1,2 15 8 25 13 ENE 1019,5 10 0,0
19.11.2018 06:00:00 0,4 -4,4 -1,9 9 5 19 10 ENE 1019,6 - 0,0
19.11.2018 05:00:00 0,4 -5,0 -1,9 9 5 21 11 ENE 1020,0 - 0,0
19.11.2018 04:00:00 0,8 -4,1 -1,4 9 5 21 11 ENE 1020,4 - 0,0
19.11.2018 03:00:00 1,2 -3,3 -0,3 14 7 22 12 ENE 1020,9 - 0,0
19.11.2018 02:00:00 1,4 -2,9 -0,1 9 5 23 13 ENE 1021,3 - 0,0
19.11.2018 01:00:00 2,2 -2,5 0,7 14 8 23 12 ENE 1021,4 - 0,0
19.11.2018 00:00:00 3,0 -1,7 1,1 11 6 18 10 ENE 1021,5 - 0,0
18.11.2018 23:00:00 3,2 -1,2 1,2 3 1 16 9 SSE 1021,8 - 0,0
18.11.2018 22:00:00 3,5 -1,1 1,7 4 2 20 11 E 1022,0 - 0,0
18.11.2018 21:00:00 4,0 -1,0 2,3 6 4 24 13 E 1022,0 - 0,0
18.11.2018 20:00:00 4,8 -0,6 3,6 16 9 30 16 ENE 1022,5 - 0,0
18.11.2018 19:00:00 5,2 0,4 3,9 18 10 29 16 ENE 1022,9 20 0,0
18.11.2018 18:00:00 6,2 1,5 5,2 19 10 37 20 ENE 1022,9 - 0,0
18.11.2018 17:00:00 6,7 1,2 5,9 25 14 38 21 ENE 1022,7 - 0,0
18.11.2018 16:00:00 7,5 1,8 8,1 21 11 40 21 ENE 1023,0 10 0,0
18.11.2018 15:00:00 7,7 1,3 7,7 18 10 37 20 ENE 1023,2 - 0,0
18.11.2018 14:00:00 8,1 0,6 8,8 21 11 34 18 E 1023,3 - 0,0
18.11.2018 13:00:00 7,6 0,1 9,5 20 11 36 19 ENE 1024,2 - 0,0
18.11.2018 12:00:00 7,0 0,0 8,2 16 8 31 17 E 1024,7 - 0,0
18.11.2018 11:00:00 6,3 -0,7 7,5 11 6 26 14 E 1025,1 - 0,0
18.11.2018 10:00:00 5,0 -0,8 3,8 8 4 17 9 ESE 1025,2 10 0,0
18.11.2018 09:00:00 2,7 -1,1 0,2 6 3 18 10 SE 1025,1 - 0,0
18.11.2018 08:00:00 1,8 -1,3 -0,5 6 3 23 12 E 1024,9 - 0,0
18.11.2018 07:00:00 2,3 -0,8 1,3 17 9 26 14 ENE 1025,0 24 0,0
18.11.2018 06:00:00 2,6 -0,9 -0,7 12 7 22 12 ENE 1025,1 - 0,0
18.11.2018 05:00:00 2,4 -1,0 -1,0 6 3 13 7 E 1025,2 - 0,0
18.11.2018 04:00:00 2,2 -1,1 -1,2 6 3 9 5 ENE 1025,1 - 0,0
18.11.2018 03:00:00 3,7 -0,3 0,4 6 3 16 9 ENE 1025,1 - 0,0
18.11.2018 02:00:00 5,4 0,2 4,1 11 6 22 12 ESE 1025,0 - 0,0
18.11.2018 01:00:00 5,7 0,5 3,6 14 7 28 15 E 1024,9 - 0,0
18.11.2018 00:00:00 5,0 1,3 3,7 15 8 24 13 ENE 1024,7 - 0,0
17.11.2018 23:00:00 5,3 1,4 3,5 14 7 25 14 E 1024,8 - 0,0
17.11.2018 22:00:00 5,7 1,8 4,1 9 5 26 14 E 1024,8 - 0,0
17.11.2018 21:00:00 6,9 2,2 4,1 14 8 26 14 E 1024,5 - 0,0
17.11.2018 20:00:00 5,7 2,3 2,9 10 5 20 11 E 1024,4 - 0,0
17.11.2018 19:00:00 5,7 2,3 2,8 9 5 15 8 ENE 1024,5 24 0,0
17.11.2018 18:00:00 6,1 2,7 4,2 11 6 17 9 ENE 1024,6 - 0,0
17.11.2018 17:00:00 7,1 2,8 6,1 9 5 31 17 E 1024,4 - 0,0
17.11.2018 16:00:00 8,3 3,5 9,5 10 5 30 16 E 1023,9 10 0,0
17.11.2018 15:00:00 8,8 3,0 8,7 16 9 29 16 E 1024,0 - 0,0
17.11.2018 14:00:00 8,7 3,3 9,6 13 7 25 14 E 1024,2 - 0,0
17.11.2018 13:00:00 8,5 2,9 9,7 11 6 28 15 ESE 1024,6 - 0,0
17.11.2018 12:00:00 7,6 2,7 8,6 17 9 32 17 E 1025,0 - 0,0
17.11.2018 11:00:00 6,1 2,7 7,9 10 6 20 11 E 1025,8 - 0,0
17.11.2018 10:00:00 3,8 2,3 3,3 6 3 14 8 E 1025,8 6 0,0
17.11.2018 09:00:00 2,8 1,9 0,8 11 6 15 8 ENE 1025,8 - 0,0
17.11.2018 08:00:00 2,9 2,0 0,9 7 4 11 6 E 1025,5 - 0,0
17.11.2018 07:00:00 3,4 2,2 2,2 6 4 15 8 E 1025,2 4,5 0,0
17.11.2018 06:00:00 3,6 2,6 2,1 9 5 16 9 ENE 1025,2 - 0,0
17.11.2018 05:00:00 5,2 3,5 3,7 8 4 18 10 E 1025,4 - 0,0
17.11.2018 04:00:00 6,1 4,3 5,7 13 7 29 16 ESE 1025,6 - 0,0
17.11.2018 03:00:00 6,3 4,6 5,9 8 4 23 12 ESE 1025,6 - 0,0
17.11.2018 02:00:00 6,4 5,0 5,6 8 4 23 12 ESE 1025,4 - 0,0
17.11.2018 01:00:00 6,0 4,8 5,7 9 5 22 12 SE 1025,5 - 0,0
17.11.2018 00:00:00 6,4 5,7 6,3 10 6 27 15 SE 1025,5 - 0,0
16.11.2018 23:00:00 6,6 5,9 6,5 13 7 22 12 E 1025,5 - 0,0
16.11.2018 22:00:00 7,1 6,5 6,9 6 3 22 12 ESE 1025,3 - 0,0
16.11.2018 21:00:00 7,7 7,1 7,4 8 4 16 9 ESE 1025,4 - 0,0
16.11.2018 20:00:00 8,2 7,4 8,0 4 2 15 8 ESE 1025,2 - 0,0
16.11.2018 19:00:00 8,9 8,1 8,6 5 3 14 7 SE 1025,1 3,0 0,0
16.11.2018 18:00:00 9,2 8,3 8,8 4 2 14 7 SE 1024,8 - 0,0
16.11.2018 17:00:00 9,9 8,8 9,6 5 3 11 6 SSE 1024,5 - 0,0
16.11.2018 16:00:00 10,3 9,1 10,4 4 2 17 9 ESE 1024,8 3,0 0,0
16.11.2018 15:00:00 10,4 9,3 10,7 8 4 21 11 SE 1024,7 - 0,0
16.11.2018 14:00:00 10,1 9,2 10,6 9 5 16 8 SSE 1024,9 - 0,0
16.11.2018 13:00:00 9,5 8,7 9,6 8 4 13 7 SE 1025,2 3,0 0,0
16.11.2018 12:00:00 8,6 8,2 8,4 8 4 16 9 SE 1025,5 - 0,0
16.11.2018 11:00:00 7,8 7,4 7,7 8 4 20 11 SSE 1025,8 - 0,0

tt = Température de l'air
td = dewpoint
tt 5cm = Température de l'air 5cm
ff = Vitesse du vent
fx = gusts
dd = Direction du vent
ppp = reduced air pressure
vv = visibility
rr = Quantités de précipitations

stations d'obs. à proximité